| time (UTC) | temp F | wind direction | speed MPH | gust MPH | rain 1hr in | rain 24hr in | rain mn in | humidity % | barometer mb |
| 20260510145003 | 52 | 286 | 0.0 | 2.0 | 0.00 | 0.00 | 0.00 | 90 | 1017.9 |
| 20260510144514 | 51 | 188 | 0.0 | 2.0 | 0.00 | 0.00 | 0.00 | 90 | 1017.9 |
| 20260510144008 | 51 | 200 | 0.0 | 2.0 | 0.00 | 0.00 | 0.00 | 90 | 1018.0 |
| 20260510143507 | 52 | 198 | 1.0 | 2.0 | 0.00 | 0.00 | 0.00 | 90 | 1018.1 |
| 20260510143032 | 52 | 192 | 0.0 | 2.0 | 0.00 | 0.00 | 0.00 | 90 | 1018.1 |
| 20260510142510 | 51 | 138 | 0.0 | 1.0 | 0.00 | 0.00 | 0.00 | 90 | 1018.1 |
| 20260510142008 | 51 | 153 | 0.0 | 0.0 | 0.00 | 0.00 | 0.00 | 90 | 1018.0 |
| 20260510141519 | 51 | 153 | 0.0 | 0.0 | 0.00 | 0.00 | 0.00 | 90 | 1017.8 |
| 20260510141011 | 51 | 97 | 0.0 | 0.0 | 0.00 | 0.00 | 0.00 | 90 | 1017.8 |
| 20260510140507 | 51 | 97 | 0.0 | 1.0 | 0.00 | 0.00 | 0.00 | 90 | 1017.6 |
| 20260510140023 | 51 | 97 | 0.0 | 2.0 | 0.00 | 0.00 | 0.00 | 90 | 1017.4 |
| 20260510135509 | 51 | 97 | 0.0 | 2.0 | 0.00 | 0.00 | 0.00 | 90 | 1017.1 |
| 20260510135008 | 50 | 95 | 0.0 | 0.0 | 0.00 | 0.00 | 0.00 | 90 | 1016.7 |
| 20260510134508 | 50 | 90 | 0.0 | 0.0 | 0.00 | 0.00 | 0.00 | 91 | 1016.8 |
| 20260510134003 | 50 | 5 | 0.0 | 0.0 | 0.00 | 0.00 | 0.00 | 91 | 1017.1 |
| 20260510133503 | 49 | 5 | 0.0 | 0.0 | 0.00 | 0.00 | 0.00 | 91 | 1017.3 |
| 20260510133014 | 49 | 304 | 0.0 | 0.0 | 0.00 | 0.00 | 0.00 | 91 | 1017.5 |
| 20260510132508 | 48 | 304 | 0.0 | 0.0 | 0.00 | 0.00 | 0.00 | 91 | 1017.5 |
| 20260510132009 | 48 | 304 | 0.0 | 0.0 | 0.00 | 0.00 | 0.00 | 91 | 1017.5 |
| 20260510131517 | 48 | 304 | 0.0 | 0.0 | 0.00 | 0.00 | 0.00 | 91 | 1017.7 |
| 20260510131011 | 48 | 304 | 0.0 | 0.0 | 0.00 | 0.00 | 0.00 | 91 | 1017.8 |
| 20260510130508 | 48 | 304 | 0.0 | 0.0 | 0.00 | 0.00 | 0.00 | 92 | 1017.8 |
| 20260510130024 | 47 | 304 | 0.0 | 0.0 | 0.00 | 0.00 | 0.00 | 91 | 1017.9 |
| 20260510125508 | 47 | 304 | 0.0 | 0.0 | 0.00 | 0.00 | 0.00 | 92 | 1017.7 |
| 20260510125011 | 47 | 304 | 0.0 | 0.0 | 0.00 | 0.00 | 0.00 | 92 | 1017.8 |
| 20260510124527 | 47 | 304 | 0.0 | 0.0 | 0.00 | 0.00 | 0.00 | 91 | 1018.0 |
| 20260510124013 | 47 | 304 | 0.0 | 0.0 | 0.00 | 0.00 | 0.00 | 91 | 1017.7 |
| 20260510123516 | 47 | 295 | 0.0 | 0.0 | 0.00 | 0.00 | 0.00 | 91 | 1017.6 |
| 20260510123024 | 47 | 277 | 0.0 | 0.0 | 0.00 | 0.00 | 0.00 | 91 | 1017.7 |
| 20260510122505 | 47 | 277 | 0.0 | 0.0 | 0.00 | 0.00 | 0.00 | 90 | 1017.7 |
| 20260510122004 | 47 | 277 | 0.0 | 0.0 | 0.00 | 0.00 | 0.00 | 91 | 1017.5 |
| 20260510121513 | 48 | 277 | 0.0 | 0.0 | 0.00 | 0.00 | 0.00 | 91 | 1017.5 |
| 20260510121007 | 47 | 277 | 0.0 | 0.0 | 0.00 | 0.00 | 0.00 | 91 | 1017.5 |
| 20260510120510 | 48 | 277 | 0.0 | 0.0 | 0.00 | 0.00 | 0.00 | 92 | 1017.5 |
| 20260510120023 | 48 | 277 | 0.0 | 0.0 | 0.00 | 0.00 | 0.00 | 91 | 1017.5 |
| 20260510115507 | 47 | 277 | 0.0 | 0.0 | 0.00 | 0.00 | 0.00 | 91 | 1017.5 |
| 20260510115012 | 48 | 277 | 0.0 | 0.0 | 0.00 | 0.00 | 0.00 | 91 | 1017.3 |
| 20260510114524 | 47 | 277 | 0.0 | 0.0 | 0.00 | 0.00 | 0.00 | 90 | 1017.2 |
| 20260510114009 | 48 | 277 | 0.0 | 0.0 | 0.00 | 0.00 | 0.00 | 91 | 1017.3 |
| 20260510113512 | 48 | 277 | 0.0 | 0.0 | 0.00 | 0.00 | 0.00 | 91 | 1017.5 |
| 20260510113026 | 48 | 277 | 0.0 | 0.0 | 0.00 | 0.00 | 0.00 | 91 | 1017.6 |
| 20260510112509 | 48 | 277 | 0.0 | 0.0 | 0.00 | 0.00 | 0.00 | 91 | 1017.6 |
| 20260510112010 | 48 | 277 | 0.0 | 0.0 | 0.00 | 0.00 | 0.00 | 91 | 1017.6 |
| 20260510111512 | 48 | 277 | 0.0 | 0.0 | 0.00 | 0.00 | 0.00 | 91 | 1017.5 |
| 20260510111004 | 48 | 277 | 0.0 | 0.0 | 0.00 | 0.00 | 0.00 | 90 | 1017.6 |
| 20260510110511 | 48 | 277 | 0.0 | 0.0 | 0.00 | 0.00 | 0.00 | 90 | 1017.5 |
| 20260510110031 | 48 | 277 | 0.0 | 0.0 | 0.00 | 0.00 | 0.00 | 90 | 1017.5 |
| 20260510105509 | 48 | 277 | 0.0 | 0.0 | 0.00 | 0.00 | 0.00 | 89 | 1017.4 |
| 20260510105008 | 49 | 277 | 0.0 | 0.0 | 0.00 | 0.00 | 0.00 | 90 | 1017.3 |
| 20260510104521 | 48 | 277 | 0.0 | 0.0 | 0.00 | 0.00 | 0.00 | 90 | 1017.3 |
| 20260510104007 | 49 | 277 | 0.0 | 0.0 | 0.00 | 0.00 | 0.00 | 90 | 1017.1 |
| 20260510103508 | 49 | 277 | 0.0 | 0.0 | 0.00 | 0.00 | 0.00 | 89 | 1017.0 |
| 20260510103026 | 49 | 277 | 0.0 | 0.0 | 0.00 | 0.00 | 0.00 | 90 | 1017.2 |
| 20260510102509 | 49 | 277 | 0.0 | 0.0 | 0.00 | 0.00 | 0.00 | 90 | 1017.2 |
| 20260510102010 | 49 | 277 | 0.0 | 0.0 | 0.00 | 0.00 | 0.00 | 89 | 1017.0 |
| 20260510101528 | 49 | 277 | 0.0 | 0.0 | 0.00 | 0.00 | 0.00 | 89 | 1017.0 |
| 20260510101009 | 49 | 277 | 0.0 | 0.0 | 0.00 | 0.00 | 0.00 | 90 | 1017.1 |
| 20260510100507 | 49 | 277 | 0.0 | 0.0 | 0.00 | 0.00 | 0.00 | 89 | 1017.1 |
| 20260510100026 | 50 | 277 | 0.0 | 0.0 | 0.00 | 0.00 | 0.00 | 89 | 1017.0 |
| 20260510095505 | 49 | 277 | 0.0 | 0.0 | 0.00 | 0.00 | 0.00 | 89 | 1017.0 |
| 20260510095011 | 50 | 277 | 0.0 | 0.0 | 0.00 | 0.00 | 0.00 | 88 | 1016.8 |
| 20260510094540 | 50 | 277 | 0.0 | 0.0 | 0.00 | 0.00 | 0.00 | 89 | 1016.7 |
| 20260510094009 | 50 | 277 | 0.0 | 0.0 | 0.00 | 0.00 | 0.00 | 89 | 1016.7 |
| 20260510093510 | 50 | 277 | 0.0 | 0.0 | 0.00 | 0.00 | 0.00 | 88 | 1016.6 |
| 20260510093021 | 50 | 277 | 0.0 | 0.0 | 0.00 | 0.00 | 0.00 | 88 | 1016.6 |
| 20260510092512 | 50 | 277 | 0.0 | 0.0 | 0.00 | 0.00 | 0.00 | 87 | 1016.6 |
| 20260510092016 | 50 | 277 | 0.0 | 0.0 | 0.00 | 0.00 | 0.00 | 87 | 1016.5 |
| 20260510091536 | 50 | 277 | 0.0 | 0.0 | 0.00 | 0.00 | 0.00 | 87 | 1016.5 |
| 20260510091008 | 50 | 277 | 0.0 | 0.0 | 0.00 | 0.00 | 0.00 | 87 | 1016.5 |
| 20260510090508 | 50 | 277 | 0.0 | 0.0 | 0.00 | 0.00 | 0.00 | 86 | 1016.4 |
| 20260510090027 | 50 | 277 | 0.0 | 0.0 | 0.00 | 0.00 | 0.00 | 85 | 1016.5 |
| 20260510085511 | 50 | 277 | 0.0 | 0.0 | 0.00 | 0.00 | 0.00 | 84 | 1016.4 |
| 20260510085015 | 51 | 277 | 0.0 | 0.0 | 0.00 | 0.00 | 0.00 | 83 | 1016.4 |
| 20260510084502 | 51 | 277 | 0.0 | 0.0 | 0.00 | 0.00 | 0.00 | 83 | 1016.5 |
| 20260510084002 | 51 | 277 | 0.0 | 0.0 | 0.00 | 0.00 | 0.00 | 83 | 1016.5 |
| 20260510083501 | 51 | 277 | 0.0 | 0.0 | 0.00 | 0.00 | 0.00 | 83 | 1016.4 |
| 20260510083004 | 51 | 277 | 0.0 | 0.0 | 0.00 | 0.00 | 0.00 | 83 | 1016.4 |
| 20260510082501 | 51 | 277 | 0.0 | 0.0 | 0.00 | 0.00 | 0.00 | 82 | 1016.3 |
| 20260510082001 | 52 | 277 | 0.0 | 0.0 | 0.00 | 0.00 | 0.00 | 82 | 1016.3 |
| 20260510081508 | 52 | 277 | 0.0 | 0.0 | 0.00 | 0.00 | 0.00 | 82 | 1016.3 |
| 20260510081005 | 52 | 277 | 0.0 | 0.0 | 0.00 | 0.00 | 0.00 | 80 | 1016.2 |
| 20260510080504 | 53 | 277 | 0.0 | 0.0 | 0.00 | 0.00 | 0.00 | 80 | 1016.2 |
| 20260510080013 | 52 | 277 | 0.0 | 0.0 | 0.00 | 0.00 | 0.00 | 81 | 1016.2 |
| 20260510075504 | 52 | 277 | 0.0 | 0.0 | 0.00 | 0.00 | 0.00 | 81 | 1016.2 |
| 20260510075004 | 52 | 277 | 0.0 | 0.0 | 0.00 | 0.00 | 0.00 | 81 | 1016.3 |
| 20260510074512 | 52 | 277 | 0.0 | 0.0 | 0.00 | 0.00 | 0.00 | 81 | 1016.3 |
| 20260510074006 | 52 | 277 | 0.0 | 0.0 | 0.00 | 0.00 | 0.00 | 82 | 1016.3 |
| 20260510073501 | 52 | 277 | 0.0 | 0.0 | 0.00 | 0.00 | 0.00 | 82 | 1016.2 |
| 20260510073006 | 52 | 277 | 0.0 | 0.0 | 0.00 | 0.00 | 0.00 | 82 | 1016.2 |
| 20260510072502 | 52 | 277 | 0.0 | 0.0 | 0.00 | 0.00 | 0.00 | 81 | 1016.3 |
| 20260510072002 | 53 | 277 | 0.0 | 0.0 | 0.00 | 0.00 | 0.00 | 81 | 1016.3 |
| 20260510071506 | 53 | 277 | 0.0 | 0.0 | 0.00 | 0.00 | 0.00 | 81 | 1016.3 |
| 20260510071001 | 53 | 277 | 0.0 | 0.0 | 0.00 | 0.00 | 0.00 | 81 | 1016.3 |
| 20260510070505 | 53 | 277 | 0.0 | 0.0 | 0.00 | 0.00 | 0.00 | 80 | 1016.3 |
| 20260510070020 | 53 | 277 | 0.0 | 0.0 | 0.00 | 0.00 | 0.00 | 81 | 1016.3 |
| 20260510065507 | 54 | 277 | 0.0 | 0.0 | 0.00 | 0.00 | 0.00 | 80 | 1016.3 |
| 20260510065005 | 54 | 277 | 0.0 | 0.0 | 0.00 | 0.00 | 0.00 | 80 | 1016.3 |
| 20260510064512 | 54 | 277 | 0.0 | 0.0 | 0.00 | 0.00 | 0.00 | 80 | 1016.2 |
| 20260510064004 | 54 | 277 | 0.0 | 0.0 | 0.00 | 0.00 | 0.00 | 80 | 1016.3 |
| 20260510063504 | 54 | 277 | 0.0 | 0.0 | 0.00 | 0.00 | 0.00 | 81 | 1016.4 |
| 20260510063013 | 54 | 277 | 0.0 | 0.0 | 0.00 | 0.00 | 0.00 | 80 | 1016.3 |
| 20260510062505 | 54 | 277 | 0.0 | 0.0 | 0.00 | 0.00 | 0.00 | 80 | 1016.3 |
| 20260510062001 | 54 | 277 | 0.0 | 0.0 | 0.00 | 0.00 | 0.00 | 79 | 1016.4 |
| 20260510061501 | 55 | 277 | 0.0 | 0.0 | 0.00 | 0.00 | 0.00 | 79 | 1016.3 |
| 20260510061003 | 55 | 277 | 0.0 | 0.0 | 0.00 | 0.00 | 0.00 | 79 | 1016.4 |
| 20260510060502 | 55 | 277 | 0.0 | 0.0 | 0.00 | 0.00 | 0.00 | 78 | 1016.3 |
| 20260510060008 | 55 | 277 | 0.0 | 0.0 | 0.00 | 0.00 | 0.00 | 78 | 1016.3 |
| 20260510055504 | 55 | 277 | 0.0 | 0.0 | 0.00 | 0.00 | 0.00 | 78 | 1016.2 |
| 20260510055004 | 56 | 277 | 0.0 | 0.0 | 0.00 | 0.00 | 0.00 | 77 | 1016.3 |
| 20260510054510 | 56 | 277 | 0.0 | 0.0 | 0.00 | 0.00 | 0.00 | 77 | 1016.3 |
| 20260510054006 | 56 | 277 | 0.0 | 0.0 | 0.00 | 0.00 | 0.00 | 77 | 1016.2 |
| 20260510053504 | 56 | 277 | 0.0 | 0.0 | 0.00 | 0.00 | 0.00 | 78 | 1016.2 |
| 20260510053042 | 56 | 277 | 0.0 | 0.0 | 0.00 | 0.00 | 0.00 | 78 | 1016.2 |
| 20260510052504 | 56 | 277 | 0.0 | 0.0 | 0.00 | 0.00 | 0.00 | 77 | 1016.2 |
| 20260510052008 | 56 | 277 | 0.0 | 0.0 | 0.00 | 0.00 | 0.00 | 76 | 1016.3 |
| 20260510051516 | 56 | 277 | 0.0 | 0.0 | 0.00 | 0.00 | 0.00 | 77 | 1016.3 |
| 20260510051005 | 56 | 277 | 0.0 | 0.0 | 0.00 | 0.00 | 0.00 | 75 | 1016.2 |
| 20260510050502 | 56 | 277 | 0.0 | 0.0 | 0.00 | 0.00 | 0.00 | 76 | 1016.2 |
| 20260510050005 | 56 | 277 | 0.0 | 0.0 | 0.00 | 0.00 | 0.00 | 76 | 1016.3 |
| 20260510045504 | 57 | 277 | 0.0 | 0.0 | 0.00 | 0.00 | 0.00 | 76 | 1016.3 |
| 20260510045006 | 57 | 277 | 0.0 | 0.0 | 0.00 | 0.00 | 0.00 | 76 | 1016.3 |
| 20260510044510 | 57 | 277 | 0.0 | 0.0 | 0.00 | 0.00 | 0.00 | 76 | 1016.3 |
| 20260510044004 | 57 | 277 | 0.0 | 0.0 | 0.00 | 0.00 | 0.00 | 75 | 1016.3 |
| 20260510043504 | 57 | 277 | 0.0 | 0.0 | 0.00 | 0.00 | 0.00 | 75 | 1016.3 |
| 20260510043024 | 58 | 277 | 0.0 | 0.0 | 0.00 | 0.00 | 0.00 | 75 | 1016.3 |
| 20260510042506 | 58 | 277 | 0.0 | 0.0 | 0.00 | 0.00 | 0.00 | 75 | 1016.3 |
| 20260510042008 | 58 | 277 | 0.0 | 0.0 | 0.00 | 0.00 | 0.00 | 75 | 1016.3 |
| 20260510041523 | 57 | 277 | 0.0 | 0.0 | 0.00 | 0.00 | 0.00 | 76 | 1016.3 |
| 20260510041005 | 58 | 277 | 0.0 | 0.0 | 0.00 | 0.00 | 0.00 | 75 | 1016.2 |
| 20260510040505 | 58 | 277 | 0.0 | 0.0 | 0.00 | 0.00 | 0.00 | 75 | 1016.2 |
| 20260510040031 | 58 | 277 | 0.0 | 0.0 | 0.00 | 0.00 | 0.00 | 74 | 1016.1 |
| 20260510035509 | 59 | 277 | 0.0 | 0.0 | 0.00 | 0.00 | 0.00 | 74 | 1016.1 |
| 20260510035004 | 59 | 277 | 0.0 | 0.0 | 0.00 | 0.00 | 0.00 | 73 | 1016.1 |
| 20260510034505 | 59 | 277 | 0.0 | 0.0 | 0.00 | 0.00 | 0.00 | 72 | 1016.1 |
| 20260510034004 | 60 | 277 | 0.0 | 0.0 | 0.00 | 0.00 | 0.00 | 71 | 1016.1 |
| 20260510033503 | 60 | 277 | 0.0 | 0.0 | 0.00 | 0.00 | 0.00 | 71 | 1016.1 |
| 20260510033010 | 60 | 277 | 0.0 | 0.0 | 0.00 | 0.00 | 0.00 | 70 | 1016.1 |
| 20260510032505 | 60 | 277 | 0.0 | 0.0 | 0.00 | 0.00 | 0.00 | 70 | 1016.0 |
| 20260510032009 | 61 | 277 | 0.0 | 0.0 | 0.00 | 0.00 | 0.00 | 68 | 1016.2 |
| 20260510031518 | 61 | 277 | 0.0 | 0.0 | 0.00 | 0.00 | 0.00 | 68 | 1016.2 |
| 20260510031007 | 61 | 277 | 0.0 | 0.0 | 0.00 | 0.00 | 0.00 | 68 | 1016.3 |
| 20260510030505 | 61 | 277 | 0.0 | 0.0 | 0.00 | 0.00 | 0.00 | 69 | 1016.3 |
| 20260510030020 | 61 | 277 | 0.0 | 0.0 | 0.00 | 0.00 | 0.00 | 68 | 1016.3 |
| 20260510025508 | 61 | 277 | 0.0 | 0.0 | 0.00 | 0.00 | 0.00 | 68 | 1016.3 |
| 20260510025008 | 62 | 277 | 0.0 | 0.0 | 0.00 | 0.00 | 0.00 | 66 | 1016.3 |
| 20260510024518 | 62 | 277 | 0.0 | 0.0 | 0.00 | 0.00 | 0.00 | 65 | 1016.3 |
| 20260510024010 | 63 | 277 | 0.0 | 2.0 | 0.00 | 0.00 | 0.00 | 64 | 1016.4 |
| 20260510023504 | 64 | 277 | 0.0 | 2.0 | 0.00 | 0.00 | 0.00 | 63 | 1016.5 |
| 20260510023008 | 65 | 271 | 1.0 | 2.0 | 0.00 | 0.00 | 0.00 | 60 | 1016.5 |
| 20260510022505 | 65 | 320 | 0.0 | 2.0 | 0.00 | 0.00 | 0.00 | 58 | 1016.5 |
| 20260510022007 | 66 | 347 | 1.0 | 2.0 | 0.00 | 0.00 | 0.00 | 55 | 1016.5 |
| 20260510021522 | 66 | 306 | 0.0 | 2.0 | 0.00 | 0.00 | 0.00 | 55 | 1016.5 |
| 20260510021004 | 66 | 352 | 0.0 | 2.0 | 0.00 | 0.00 | 0.00 | 56 | 1016.5 |
| 20260510020506 | 65 | 323 | 0.0 | 2.0 | 0.00 | 0.00 | 0.00 | 55 | 1016.5 |
| 20260510020018 | 65 | 285 | 0.0 | 2.0 | 0.00 | 0.00 | 0.00 | 56 | 1016.5 |
| 20260510015507 | 65 | 287 | 1.0 | 2.0 | 0.00 | 0.00 | 0.00 | 57 | 1016.6 |
| 20260510015007 | 65 | 360 | 0.0 | 2.0 | 0.00 | 0.00 | 0.00 | 58 | 1016.8 |
| 20260510014523 | 64 | 290 | 1.0 | 3.0 | 0.00 | 0.00 | 0.00 | 59 | 1016.9 |
| 20260510014008 | 64 | 312 | 2.0 | 3.0 | 0.00 | 0.00 | 0.00 | 58 | 1017.1 |
| 20260510013509 | 65 | 281 | 1.0 | 3.0 | 0.00 | 0.00 | 0.00 | 59 | 1017.1 |
| 20260510013025 | 64 | 291 | 2.0 | 3.0 | 0.00 | 0.00 | 0.00 | 58 | 1017.2 |
| 20260510012507 | 65 | 260 | 0.0 | 4.0 | 0.00 | 0.00 | 0.00 | 58 | 1017.2 |
| 20260510012006 | 65 | 290 | 2.0 | 4.0 | 0.00 | 0.00 | 0.00 | 57 | 1017.2 |
| 20260510011509 | 66 | 312 | 2.0 | 4.0 | 0.00 | 0.00 | 0.00 | 57 | 1017.3 |
| 20260510011004 | 66 | 286 | 2.0 | 6.0 | 0.00 | 0.00 | 0.00 | 56 | 1017.3 |
| 20260510010506 | 66 | 282 | 3.0 | 6.0 | 0.00 | 0.00 | 0.00 | 55 | 1017.4 |
| 20260510010014 | 66 | 317 | 2.0 | 3.0 | 0.00 | 0.00 | 0.00 | 55 | 1017.3 |
| 20260510005509 | 66 | 309 | 1.0 | 3.0 | 0.00 | 0.00 | 0.00 | 56 | 1017.3 |
| 20260510005005 | 66 | 277 | 1.0 | 4.0 | 0.00 | 0.00 | 0.00 | 57 | 1017.3 |
| 20260510004527 | 66 | 305 | 1.0 | 4.0 | 0.00 | 0.00 | 0.00 | 55 | 1017.3 |
| 20260510004009 | 66 | 334 | 1.0 | 3.0 | 0.00 | 0.00 | 0.00 | 56 | 1017.4 |
| 20260510003508 | 66 | 300 | 1.0 | 4.0 | 0.00 | 0.00 | 0.00 | 54 | 1017.5 |
| 20260510003021 | 65 | 291 | 1.0 | 4.0 | 0.00 | 0.00 | 0.00 | 54 | 1017.5 |
| 20260510002510 | 66 | 292 | 1.0 | 6.0 | 0.00 | 0.00 | 0.00 | 54 | 1017.5 |
| 20260510002011 | 66 | 285 | 1.0 | 6.0 | 0.00 | 0.00 | 0.00 | 56 | 1017.7 |
| 20260510001524 | 67 | 288 | 1.0 | 4.0 | 0.00 | 0.00 | 0.00 | 53 | 1017.7 |
| 20260510001008 | 66 | 261 | 1.0 | 4.0 | 0.00 | 0.00 | 0.00 | 52 | 1017.6 |
| 20260510000504 | 67 | 329 | 2.0 | 4.0 | 0.00 | 0.00 | 0.00 | 51 | 1017.7 |
| 20260510000018 | 67 | 286 | 1.0 | 3.0 | 0.00 | 0.00 | 0.00 | 52 | 1017.8 |
| 20260509235511 | 67 | 273 | 1.0 | 4.0 | 0.00 | 0.00 | 0.00 | 51 | 1017.9 |
| 20260509235008 | 67 | 257 | 2.0 | 4.0 | 0.00 | 0.00 | 0.00 | 50 | 1017.8 |
| 20260509234518 | 67 | 265 | 0.0 | 4.0 | 0.00 | 0.00 | 0.00 | 51 | 1017.8 |
| 20260509234013 | 67 | 263 | 1.0 | 3.0 | 0.00 | 0.00 | 0.00 | 49 | 1017.9 |
| 20260509233508 | 68 | 263 | 1.0 | 4.0 | 0.00 | 0.00 | 0.00 | 46 | 1018.1 |
| 20260509233022 | 67 | 360 | 1.0 | 5.0 | 0.00 | 0.00 | 0.00 | 43 | 1018.1 |
| 20260509232508 | 68 | 348 | 1.0 | 5.0 | 0.00 | 0.00 | 0.00 | 43 | 1018.0 |
| 20260509232008 | 67 | 263 | 2.0 | 5.0 | 0.00 | 0.00 | 0.00 | 44 | 1018.1 |
| 20260509231525 | 67 | 341 | 2.0 | 5.0 | 0.00 | 0.00 | 0.00 | 46 | 1018.3 |
| 20260509231011 | 67 | 45 | 1.0 | 7.0 | 0.00 | 0.00 | 0.00 | 47 | 1018.2 |
| 20260509230511 | 67 | 286 | 3.0 | 7.0 | 0.00 | 0.00 | 0.00 | 47 | 1018.3 |
| 20260509230026 | 67 | 331 | 2.0 | 7.0 | 0.00 | 0.00 | 0.00 | 46 | 1018.4 |
| 20260509225506 | 67 | 13 | 3.0 | 7.0 | 0.00 | 0.00 | 0.00 | 47 | 1018.6 |
| 20260509225007 | 67 | 20 | 1.0 | 7.0 | 0.00 | 0.00 | 0.00 | 48 | 1018.7 |
| 20260509224517 | 67 | 15 | 1.0 | 4.0 | 0.00 | 0.00 | 0.00 | 49 | 1018.7 |
| 20260509224008 | 67 | 259 | 2.0 | 4.0 | 0.00 | 0.00 | 0.00 | 50 | 1018.9 |
| 20260509223501 | 67 | 234 | 2.0 | 8.0 | 0.00 | 0.00 | 0.00 | 50 | 1019.0 |
| 20260509223004 | 66 | 275 | 0.0 | 8.0 | 0.00 | 0.00 | 0.00 | 50 | 1018.9 |
| 20260509222503 | 66 | 290 | 2.0 | 4.0 | 0.00 | 0.00 | 0.00 | 49 | 1018.9 |
| 20260509222006 | 66 | 281 | 1.0 | 4.0 | 0.00 | 0.00 | 0.00 | 51 | 1019.1 |
| 20260509221503 | 67 | 241 | 2.0 | 5.0 | 0.00 | 0.00 | 0.00 | 48 | 1019.2 |
| 20260509221004 | 66 | 325 | 1.0 | 6.0 | 0.00 | 0.00 | 0.00 | 49 | 1019.2 |
| 20260509220504 | 66 | 292 | 2.0 | 6.0 | 0.00 | 0.00 | 0.00 | 48 | 1019.2 |
| 20260509220010 | 67 | 286 | 3.0 | 6.0 | 0.00 | 0.00 | 0.00 | 49 | 1019.2 |
| 20260509215507 | 66 | 289 | 2.0 | 6.0 | 0.00 | 0.00 | 0.00 | 49 | 1019.1 |
| 20260509215009 | 66 | 273 | 1.0 | 4.0 | 0.00 | 0.00 | 0.00 | 50 | 1019.2 |
| 20260509214514 | 66 | 275 | 2.0 | 6.0 | 0.00 | 0.00 | 0.00 | 49 | 1019.2 |
| 20260509214007 | 65 | 275 | 2.0 | 6.0 | 0.00 | 0.00 | 0.00 | 51 | 1019.3 |
| 20260509213508 | 65 | 313 | 3.0 | 5.0 | 0.00 | 0.00 | 0.00 | 52 | 1019.4 |
| 20260509213026 | 66 | 240 | 2.0 | 5.0 | 0.00 | 0.00 | 0.00 | 52 | 1019.4 |
| 20260509212510 | 66 | 9 | 3.0 | 5.0 | 0.00 | 0.00 | 0.00 | 54 | 1019.4 |
| 20260509212002 | 66 | 319 | 2.0 | 6.0 | 0.00 | 0.00 | 0.00 | 55 | 1019.5 |
| 20260509211506 | 65 | 339 | 3.0 | 6.0 | 0.00 | 0.00 | 0.00 | 56 | 1019.6 |
| 20260509211005 | 65 | 301 | 3.0 | 6.0 | 0.00 | 0.00 | 0.00 | 55 | 1019.6 |
| 20260509210504 | 66 | 279 | 1.0 | 6.0 | 0.00 | 0.00 | 0.00 | 56 | 1019.6 |
| 20260509210009 | 65 | 246 | 2.0 | 6.0 | 0.00 | 0.00 | 0.00 | 58 | 1019.6 |
| 20260509205504 | 65 | 264 | 2.0 | 6.0 | 0.00 | 0.00 | 0.00 | 58 | 1019.6 |
| 20260509205005 | 65 | 319 | 3.0 | 6.0 | 0.00 | 0.00 | 0.00 | 59 | 1019.6 |
| 20260509204510 | 65 | 252 | 3.0 | 8.0 | 0.00 | 0.00 | 0.00 | 59 | 1019.7 |
| 20260509204009 | 65 | 291 | 2.0 | 8.0 | 0.00 | 0.00 | 0.00 | 60 | 1019.7 |
| 20260509203507 | 65 | 265 | 3.0 | 6.0 | 0.00 | 0.00 | 0.00 | 59 | 1019.8 |
| 20260509203028 | 65 | 259 | 2.0 | 8.0 | 0.00 | 0.00 | 0.00 | 61 | 1019.8 |
| 20260509202508 | 65 | 290 | 5.0 | 8.0 | 0.00 | 0.00 | 0.00 | 58 | 1019.8 |
| 20260509202012 | 65 | 265 | 3.0 | 7.0 | 0.00 | 0.00 | 0.00 | 60 | 1019.9 |
| 20260509201522 | 65 | 288 | 3.0 | 7.0 | 0.00 | 0.00 | 0.00 | 59 | 1019.9 |
| 20260509201013 | 65 | 275 | 3.0 | 7.0 | 0.00 | 0.00 | 0.00 | 58 | 1020.0 |
| 20260509200506 | 64 | 273 | 1.0 | 6.0 | 0.00 | 0.00 | 0.00 | 62 | 1020.1 |
| 20260509200008 | 64 | 271 | 2.0 | 5.0 | 0.00 | 0.00 | 0.00 | 62 | 1020.2 |
| 20260509195505 | 63 | 273 | 2.0 | 5.0 | 0.00 | 0.00 | 0.00 | 62 | 1020.3 |
| 20260509195004 | 63 | 275 | 2.0 | 6.0 | 0.00 | 0.00 | 0.00 | 62 | 1020.2 |
| 20260509194510 | 62 | 285 | 2.0 | 6.0 | 0.00 | 0.00 | 0.00 | 64 | 1020.4 |
| 20260509194006 | 63 | 281 | 2.0 | 6.0 | 0.00 | 0.00 | 0.00 | 63 | 1020.4 |
| 20260509193505 | 63 | 287 | 2.0 | 5.0 | 0.00 | 0.00 | 0.00 | 62 | 1020.6 |
| 20260509193024 | 63 | 269 | 2.0 | 4.0 | 0.00 | 0.00 | 0.00 | 63 | 1020.7 |
| 20260509192506 | 63 | 289 | 2.0 | 7.0 | 0.00 | 0.00 | 0.00 | 63 | 1020.8 |
| 20260509192007 | 62 | 311 | 1.0 | 7.0 | 0.00 | 0.00 | 0.00 | 65 | 1020.7 |
| 20260509191532 | 62 | 257 | 2.0 | 8.0 | 0.00 | 0.00 | 0.00 | 64 | 1020.8 |
| 20260509191009 | 62 | 281 | 3.0 | 8.0 | 0.00 | 0.00 | 0.00 | 65 | 1020.9 |
| 20260509190512 | 62 | 265 | 3.0 | 8.0 | 0.00 | 0.00 | 0.00 | 63 | 1020.9 |
| 20260509190029 | 62 | 296 | 3.0 | 6.0 | 0.00 | 0.00 | 0.00 | 64 | 1020.9 |
| 20260509185508 | 62 | 250 | 2.0 | 6.0 | 0.00 | 0.00 | 0.00 | 66 | 1020.9 |
| 20260509185006 | 62 | 263 | 2.0 | 6.0 | 0.00 | 0.00 | 0.00 | 64 | 1021.0 |
| 20260509184527 | 62 | 201 | 3.0 | 8.0 | 0.00 | 0.00 | 0.00 | 64 | 1021.1 |
| 20260509184008 | 61 | 286 | 3.0 | 8.0 | 0.00 | 0.00 | 0.00 | 65 | 1021.2 |
| 20260509183504 | 62 | 339 | 2.0 | 5.0 | 0.00 | 0.00 | 0.00 | 66 | 1021.1 |
| 20260509183012 | 61 | 267 | 2.0 | 7.0 | 0.00 | 0.00 | 0.00 | 67 | 1021.2 |
| 20260509182509 | 61 | 283 | 3.0 | 7.0 | 0.00 | 0.00 | 0.00 | 66 | 1021.2 |
| 20260509182007 | 61 | 275 | 3.0 | 6.0 | 0.00 | 0.00 | 0.00 | 68 | 1021.2 |
| 20260509181517 | 61 | 275 | 2.0 | 6.0 | 0.00 | 0.00 | 0.00 | 70 | 1021.1 |
| 20260509181008 | 60 | 271 | 3.0 | 6.0 | 0.00 | 0.00 | 0.00 | 69 | 1021.1 |
| 20260509180508 | 60 | 275 | 2.0 | 6.0 | 0.00 | 0.00 | 0.00 | 70 | 1021.2 |
| 20260509180022 | 60 | 292 | 2.0 | 6.0 | 0.00 | 0.00 | 0.00 | 70 | 1021.2 |
| 20260509175513 | 60 | 238 | 2.0 | 6.0 | 0.00 | 0.00 | 0.00 | 72 | 1021.2 |
| 20260509175010 | 59 | 298 | 2.0 | 6.0 | 0.00 | 0.00 | 0.00 | 72 | 1021.2 |
| 20260509174526 | 59 | 323 | 2.0 | 6.0 | 0.00 | 0.00 | 0.00 | 74 | 1021.3 |
| 20260509174011 | 59 | 279 | 3.0 | 6.0 | 0.00 | 0.00 | 0.00 | 73 | 1021.5 |
| 20260509173508 | 59 | 286 | 2.0 | 6.0 | 0.00 | 0.00 | 0.00 | 74 | 1021.4 |
| 20260509173009 | 59 | 273 | 3.0 | 6.0 | 0.00 | 0.00 | 0.00 | 74 | 1021.5 |
| 20260509172506 | 58 | 318 | 3.0 | 6.0 | 0.00 | 0.00 | 0.00 | 76 | 1021.6 |
| 20260509172006 | 58 | 12 | 3.0 | 6.0 | 0.00 | 0.00 | 0.00 | 74 | 1021.6 |
| 20260509171515 | 58 | 337 | 2.0 | 7.0 | 0.00 | 0.00 | 0.00 | 75 | 1021.6 |
| 20260509171007 | 58 | 252 | 2.0 | 7.0 | 0.00 | 0.00 | 0.00 | 76 | 1021.6 |
| 20260509170508 | 58 | 279 | 1.0 | 7.0 | 0.00 | 0.00 | 0.00 | 78 | 1021.6 |
| 20260509170023 | 57 | 281 | 2.0 | 6.0 | 0.00 | 0.00 | 0.00 | 77 | 1021.6 |
| 20260509165508 | 57 | 9 | 2.0 | 6.0 | 0.00 | 0.00 | 0.00 | 79 | 1021.6 |
| 20260509165007 | 56 | 281 | 2.0 | 6.0 | 0.00 | 0.00 | 0.00 | 79 | 1021.7 |
| 20260509164525 | 56 | 290 | 2.0 | 6.0 | 0.00 | 0.00 | 0.00 | 79 | 1021.8 |
| 20260509164011 | 56 | 291 | 3.0 | 5.0 | 0.00 | 0.00 | 0.00 | 79 | 1021.9 |
| 20260509163510 | 56 | 297 | 3.0 | 5.0 | 0.00 | 0.00 | 0.00 | 79 | 1021.8 |
| 20260509163034 | 56 | 302 | 3.0 | 5.0 | 0.00 | 0.00 | 0.00 | 79 | 1021.8 |
| 20260509162515 | 56 | 284 | 2.0 | 4.0 | 0.00 | 0.00 | 0.00 | 79 | 1021.8 |
| 20260509162007 | 56 | 292 | 3.0 | 4.0 | 0.00 | 0.00 | 0.00 | 79 | 1021.9 |
| 20260509161514 | 56 | 279 | 2.0 | 4.0 | 0.00 | 0.00 | 0.00 | 80 | 1021.9 |
| 20260509161007 | 55 | 255 | 1.0 | 4.0 | 0.00 | 0.00 | 0.00 | 82 | 1021.9 |
| 20260509160507 | 55 | 323 | 2.0 | 4.0 | 0.00 | 0.00 | 0.00 | 81 | 1022.0 |
| 20260509160016 | 55 | 268 | 2.0 | 4.0 | 0.00 | 0.00 | 0.00 | 82 | 1022.0 |
| 20260509155507 | 55 | 272 | 2.0 | 4.0 | 0.00 | 0.00 | 0.00 | 82 | 1022.1 |
| 20260509155010 | 55 | 284 | 1.0 | 6.0 | 0.00 | 0.00 | 0.00 | 82 | 1022.2 |
| 20260509154524 | 55 | 286 | 2.0 | 6.0 | 0.00 | 0.00 | 0.00 | 81 | 1022.2 |
| 20260509154008 | 55 | 277 | 1.0 | 2.0 | 0.00 | 0.00 | 0.00 | 81 | 1022.2 |
| 20260509153512 | 55 | 248 | 1.0 | 2.0 | 0.00 | 0.00 | 0.00 | 80 | 1022.2 |
| 20260509153031 | 54 | 331 | 1.0 | 3.0 | 0.00 | 0.00 | 0.00 | 81 | 1022.2 |
| 20260509152510 | 54 | 119 | 1.0 | 3.0 | 0.00 | 0.00 | 0.00 | 82 | 1022.2 |
| 20260509152011 | 54 | 110 | 1.0 | 4.0 | 0.00 | 0.00 | 0.00 | 82 | 1022.2 |
| 20260509151526 | 54 | 129 | 1.0 | 4.0 | 0.00 | 0.00 | 0.00 | 82 | 1022.2 |
| 20260509151006 | 54 | 91 | 1.0 | 3.0 | 0.00 | 0.00 | 0.00 | 82 | 1022.2 |
| 20260509150509 | 54 | 94 | 2.0 | 3.0 | 0.00 | 0.00 | 0.00 | 83 | 1022.3 |
| 20260509150018 | 53 | 91 | 0.0 | 3.0 | 0.00 | 0.00 | 0.00 | 83 | 1022.4 |
| 20260509145508 | 53 | 98 | 0.0 | 3.0 | 0.00 | 0.00 | 0.00 | 85 | 1022.3 |